Погода в Сосновке

Россия / Тамбовская область     53°13′58″N   41°22′05″E
темп.,
°C
ветер,
м/с
пор.,
м/с
влажн.,
%
обл.,
%
осадки,
мм/ч
давл.,
гПа
погр.,
м
18 мая, ср
ср1800:00+6з51097100 0.1 1004371
03:00+7зсз4798100 0.4 1004292
06:00+7зсз2396100 0.1 1006178
09:00+10с457349 0.2 10071032
12:00+11ссз567482 0.3 1009856
15:00+13с566985 0.8 10101231
18:00+11с348134 0.7 1011353
21:00+8з228416 0.9 101311
19 мая, чт
чт1900:00+6ссз4108781 0.0 1014188
03:00+5ссз49936 0.0 1015196
06:00+6сз489038 0.0 1016274
09:00+10зсз46635 0.0 1015837
12:00+13з695895 0.1 10141639
15:00+14зсз81162100 0.7 10131800
18:00+11ссз597536 1.2 10131011
21:00+7сз36875 1.2 101593
20 мая, пт
пт2000:00+5ссз36913 0.0 101590
03:00+4ссз49930 0.0 1016192
06:00+4ссз410840 0.0 1018370
09:00+8ссз68585 0.0 10181226
12:00+9ссз6858100 0.1 10181570
15:00+11сз674894 0.1 10172073
18:00+11сз355673 0.0 10161725
21:00+6ссв1164100 0.0 101610
21 мая, сб
сб2100:00+5вюв2266100 0.0 101411
03:00+5юв2368100 0.0 101348
06:00+6в3471100 0.0 1011148
09:00+10всв455663 0.0 10101083
12:00+10св5650100 0.1 10091804
15:00+12ссв674693 0.2 10082193
18:00+9ссв710685 0.6 10091055
21:00+5с411787 0.7 1010296
22 мая, вс
вс2200:00+3с37815 0.0 1011130
03:00+2сз48835 0.0 1011146
06:00+4ссз48760 0.0 1011249
09:00+9с57550 0.0 10111270
12:00+11ссз56455 0.0 10101944
15:00+12ссз5644100 0.0 10102156
18:00+11с465568 0.0 10091216
21:00+6св22675 0.1 101111